COSMOS 886 DEB, 9965

Orbit data source: Space-Track

COSMOS 886 DEB, 9965 is space debris in LEO originally from a launch on Mon, 27 Dec 1976 UTC launched from the Tyuratam Missile And Space Complex (TTMTR). Debris objects in space refer to the collection of defunct objects orbiting the Earth. Examples of debris include non-operational satellites, rocket bodies, and fragments generated from explosions, collisions, or faulty payload assembly.

Loading next visibility...
Identifier
9965, 1976-126BF
Orbit
LEO
Country
Flag of CISCIS
Related business
Manufacturer
Unknown
Mission
Spacecraft
Bus & Motor
Unknown
Mass
Unknown
Launch date (UTC)
1976-12-27 (49 years ago)
Launch vehicle
Unknown
Launch site
Tyuratam Missile And Space Complex (TTMTR)
Object type
Payload
Rocket body
Debris
Shape & HBR
Unknown shape, 0.1 m
Radar Cross Section
Medium (>0.1 m² and <1 m²)

Expand to show TLE details & history
Last TLE update: 22 hours ago

TLE from 22 hours ago
0 COSMOS 886 DEB
1 09965U 76126BF  26174.87728240 -.00000016  00000-0  11616-3 0  9995
2 09965  65.8004 323.6148 0888303 254.4430 278.7996 12.13572521169039
Epoch: 2026-06-23T21:03Z
TLE epoch observation values (Epoch: 2026-06-23T21:03:17.199Z)
Latitude
15.40325°
Longitude
-91.32711°
Altitude
1,575.721 km
Speed
7.102 km/s
True Right ascension
09h 06m 08s
True Declination
15° 19' 28"
Sunlit
Object was in daylight at epoch
Visualization orbit readout
Latitude
Unknown
Longitude
Unknown
Altitude
Unknown
Speed
Unknown
Apparent Right ascension
Unknown
Apparent Declination
Unknown
Sunlit
N/A
Visualization observer readout
Local Sidereal Time
06:17:55
Azimuth
Unknown
Elevation
Unknown
Doppler factor
Unknown
Orbital elements
Apogee altitude
2,329.697 km
Perigee altitude
908.87 km
Semi-major axis
7,997.421 km
Eccentricity
0.08883
Inclination
65.8004°
RAAN
323.6148°
Arg. of periapsis
254.443°
True anomaly
268.62043°
Mean anomaly
278.7996°
Eccentric anomaly
273.72073°
Mean motion
3.03472 °/min
Orbital period
118.63 mins
BSTAR
0.00011616
Loading maneuver chart data...
Computing Atmospheric mass density...
Loading historical data...
Loading historical data...
Loading historical data...
Loading historical data...
Loading historical data...
Loading historical data...
Loading historical data...

Documentation

Showing up to 5 results
|